LiveATC.Net - Listen to live air traffic control over the Internet!


ICAO: KHGR  IATA: HGR   Airport: Hagerstown Regional Airport-Richard A Henson Field
City: Hagerstown   State/Province: Maryland
Country: United States   Continent: North America
KHGR METAR Weather: KHGR 040153Z 26007KT 10SM CLR 27/17 A2976 RMK AO2 SLP079 T02720172
KHGR Flight Activity (FlightAware)
KHGR Airport Info   (iFlightPlanner)
KHGR VFR Sectional Chart   (iFlightPlanner) 
KHGR IFR Low Chart   (iFlightPlanner) 

KHGR Tower
Feed Status: DOWN
Last heard on: 2020-06-02 14:14:21 (1 days 12 hours 45 minutes ago)
Archive Access: KHGR Tower
FacilityFrequency
Hagerstown Tower120.300

NOTICE

Unauthorized use prohibited. See LiveATC.net Terms of Service


Airport/ARTCC Code
Frequency Search
(e.g., 124.400, 128.75)
Site-wide search
 


Browse Feeds
Top 50 Feeds
Coverage Map
Bad Weather Areas

LiveATC FAQ
Offer LiveATC feed
Contact LiveATC.net
Press Inquiries

LiveATC on iPhone
LiveATC on Android

Windows Phone
Windows 8/10

LiveATC Mobile
(Mobile browser)

ATC Audio Archives
Interesting Recordings

LiveATC Forums


Home Page
About LiveATC.net
Make a Donation
Terms of Use
Privacy Policy

Canadian Air Freqs

AIRMETs/SIGMETs

FAA Airport Status
Nat'l Airspace Status
Arrival Demand Charts


Server Software By:
Icecast.org
Liquidsoap